Location: Goettingen
(51.5300°N, 9.9433°E)
Time: 14:03:27
(UTC+01:00)

ISS - Visible Passes

Search period start: 20 February 2019 00:00
Search period end: 02 March 2019 00:00
Orbit: 403 x 411 km, 51.6° (Epoch: 21 February)

Date Brightness Start Highest point End Pass type
(mag) Time Alt. Az. Time Alt. Az. Time Alt. Az.
23 Feb -0.8 06:34:56 10° S 06:36:45 14° SE 06:38:35 10° ESE visible
25 Feb -1.7 06:27:11 10° SSW 06:29:57 25° SSE 06:32:43 10° E visible
26 Feb -1.2 05:36:23 10° S 05:38:37 17° SE 05:40:50 10° E visible
27 Feb -0.9 04:46:37 10° SSE 04:47:19 11° SE 04:48:17 10° ESE visible
27 Feb -2.8 06:20:05 10° SW 06:23:12 43° SSE 06:26:21 10° E visible
28 Feb -2.3 05:30:03 18° SSW 05:31:46 30° SSE 05:34:41 10° E visible
01 Mar -1.6 04:40:40 20° SE 04:40:40 20° SE 04:42:53 10° E visible
01 Mar -3.6 06:13:22 11° WSW 06:16:31 67° SSE 06:19:47 10° E visible
